User: anonymous   Login
Location: Brno
(49.2000°N, 16.6330°E)
Time: 06:36:23
(UTC+02:00)
Language:

Meteor 1-4 Rocket - Orbit

View from above orbital plane
View from above orbital plane
View from above satellite
View from above satellite

Ground track
Ground track

The orbit data is extracted from the following two-line orbital elements,

1 04394U 70037B   18111.89567286  .00001170  00000-0  39734-4 0  9999
2 04394  81.2445  12.1873 0040649 147.9120 212.4603 15.28773316611925
Epoch (UTC): 21 April 2018 21:29:46
Eccentricity: 0.0040649
inclination: 81.2445°
perigee height: 451 km
apogee height: 507 km
right ascension of ascending node: 12.1873°
argument of perigee: 147.9120°
revolutions per day: 15.28773316
mean anomaly at epoch: 212.4603°
orbit number at epoch: 61192

The dashed part of the orbit path shows where the satellite is in the earth's shadow,  

DLR